Showing default

IRIDIUM 158, 43571

Orbit data source: Space-Track

IRIDIUM 158, 43571 is a payload satellite owned by Iridium (US) in LEO that was launched on Wed, 25 Jul 2018 UTC via an FALCON 9 launch vehicle from the Air Force Western Test Range (AFWTR). Payload-class satellites include a variety of spacecraft equipped with specific instruments for various scientific and technological missions. These include communications satellites like Starlink; space stations such as the ISS; scientific satellites like the Hubble; Earth observation satellites from companies like Planet Labs, Umbra, and HawkEye 360; GPS; miniature CubeSats for education and research; and military/defense satellites.

Loading next visibility...
Identifier
43571, 2018-061C
Orbit
LEO
Country
Flag of USUS
Related business
Manufacturer
NGIS SSG Gilbert
Mission
Operational Commercial Communications
Bus & Motor
ELITEBUS, Unknown motor
Mass
860 kg wet, 700 kg dry
Launch date (UTC)
2018-07-25 (7 years ago)
Launch vehicle
FALCON 9
Launch site
Air Force Western Test Range (AFWTR)
Object type
Payload
Rocket body
Debris
Shape & HBR
Trap Box + 2 Pan, 4.7 m
Radar Cross Section
14.423 m², Large (>1 m²)

Expand to show TLE details & history
Last TLE update: 14 hours ago

TLE from 14 hours ago
0 IRIDIUM 158
1 43571U 18061C   25258.79396355  .00000172  00000-0  54401-4 0  9993
2 43571  86.4048 171.4317 0002209  88.4012 271.7437 14.34217991374031
Epoch: 2025-09-15T19:03Z
TLE epoch observation values (Epoch: 2025-09-15T19:03:18.45Z)
Latitude
-0.00002°
Longitude
-109.38869°
Altitude
780.67 km
Speed
7.464 km/s
True Right ascension
11h 25m 43s
True Declination
0° 00' 00"
Sunlit
Object was in daylight at epoch
Visualization orbit readout
Latitude
Unknown
Longitude
Unknown
Altitude
Unknown
Speed
Unknown
Apparent Right ascension
Unknown
Apparent Declination
Unknown
Sunlit
N/A
Visualization observer readout
Local Sidereal Time
02:15:04
Azimuth
Unknown
Elevation
Unknown
Doppler factor
Unknown
Orbital elements
Apogee altitude
776.211 km
Perigee altitude
773.051 km
Semi-major axis
7,152.768 km
Eccentricity
0.00022
Inclination
86.4048°
RAAN
171.4317°
Arg. of periapsis
88.4012°
True anomaly
271.7184°
Mean anomaly
271.7437°
Eccentric anomaly
271.73105°
Mean motion
3.58783 °/min
Orbital period
100.34 mins
BSTAR
0.000054401
Loading maneuver chart data...
Computing Atmospheric mass density...
Loading historical data...
Loading historical data...
Loading historical data...
Loading historical data...
Loading historical data...
Loading historical data...
Loading historical data...

Documentation

Showing up to 5 results
|